sat.trackr.live / text

‹ back to catalog

STARLINK-2123

NORAD 47401 · 2021-005BE

PAYLOAD ACTIVE UNKNOWN

§ Identity

Operator
Country
US
Launch date
2021-01-20
Launch site
AFETR
Launch vehicle
Mass (kg)
RCS (m²)

Purposes: comms

External: N2YO · Heavens-Above · Gunter

§ Orbital elements

Epoch: 2026-09-20T03:40:35.475168Z

Period
94.01 min
Inclination
53.1615°
Eccentricity
0.0001293
Mean motion
15.31716769 rev/d
Perigee alt
469.8 km
Apogee alt
471.6 km
Semi-major
6,848.8 km
B*
3.4175e-5
RAAN
211.9634°
Arg perigee
96.0279°
Mean anomaly
264.0870°
Rev number
31,318

§ Raw data

STARLINK-21231 47401U 21005BE  26263.15318837  .00000696  00000+0  34175-4 0  99932 47401  53.1615 211.9634 0001293  96.0279 264.0870 15.31716769313182

JSON: /api/v1/satellites/47401 · /tle

For live sub-satellite position, see the globe view (requires WebGL).

§ Visibility from observer

Set your observer location to see the next 7 days of passes ≥ 10°. The values pass through the URL so the page stays shareable.

No JS? Fill the form by hand. The geolocation button needs JavaScript.